Broomfield, CO

4:37 PM MDT on April 23, 2017 (GMT -0600)
Jeffco

Weather History for KBJC - November, 2011

Change the Weather History Date:

Tuesday, November 8, 2011

  Actual Average Record
Temperature  
Mean Temperature 34 °F -  
Max Temperature 44 °F 50 °F 80 °F (2006)
Min Temperature 23 °F 31 °F 17 °F (1990)
Degree Days  
Heating Degree Days 32    
Moisture  
Dew Point 23 °F    
Average Humidity 67    
Maximum Humidity 87    
Minimum Humidity 34    
Precipitation  
Precipitation 0.00 in - - ()
Sea Level Pressure  
Sea Level Pressure 30.14 in    
Wind  
Wind Speed 3 mph (North)    
Max Wind Speed 14 mph    
Max Gust Speed -    
Visibility 13 miles    
Events      
Averages and records for this station are not official NWS values.
T = Trace of Precipitation, MM = Missing Value Source: NWS Daily Summary

Daily Weather History Graph

Daily Weather History Graph

Search for Another Location

Airport or City:

Trip Planner

Search our weather history database for the weather conditions in past years. The results will help you decide how hot, cold, wet, or windy it might be!

Date:

Astronomy

Nov. 08, 2011 Rise Set
Actual Time 6:37 AM MST 4:50 PM MST
Civil Twilight 6:08 AM MST 5:19 PM MST
Nautical Twilight 5:36 AM MST 5:51 PM MST
Astronomical Twilight 5:04 AM MST 6:23 PM MST
Moon 3:31 PM MST (11/8) 4:38 AM MST (11/8)
Length of Visible Light 11h 10m
Length of Day
10h 13m
Waxing Gibbous, 96% of the Moon is Illuminated
Nov 8
Waxing Gibbous
Nov 10
Full
Nov 18
Last Quarter
Nov 24
New
Dec 2
First Quarter

Hourly Weather History & Observations

Time (MST) Temp. Windchill Dew Point Humidity Pressure Visibility Wind Dir Wind Speed Gust Speed Precip Events Conditions
12:07 AM 32.0 °F - 28.4 °F 87% 30.04 in 10.0 mi Calm Calm - N/A   Mostly Cloudy
12:27 AM 32.0 °F - 28.4 °F 87% 30.04 in 10.0 mi Calm Calm - N/A   Overcast
12:46 AM 32.0 °F - 28.4 °F 87% 30.03 in 10.0 mi Calm Calm - N/A   Mostly Cloudy
1:07 AM 32.0 °F - 26.6 °F 80% 30.03 in 10.0 mi Calm Calm - N/A   Scattered Clouds
1:27 AM 32.0 °F - 28.4 °F 87% 30.03 in 10.0 mi Calm Calm - N/A   Scattered Clouds
1:47 AM 32.0 °F 28.7 °F 28.4 °F 87% 30.03 in 10.0 mi NNE 3.5 mph - N/A   Scattered Clouds
2:07 AM 32.0 °F 27.5 °F 28.4 °F 87% 30.03 in 10.0 mi North 4.6 mph - N/A   Mostly Cloudy
2:27 AM 32.0 °F 28.7 °F 28.4 °F 87% 30.03 in 10.0 mi North 3.5 mph - N/A   Overcast
2:47 AM 32.0 °F 26.4 °F 28.4 °F 87% 30.03 in 10.0 mi NNW 5.8 mph - N/A   Overcast
3:07 AM 32.0 °F 25.6 °F 28.4 °F 87% 30.03 in 10.0 mi NNW 6.9 mph - N/A   Overcast
3:27 AM 32.0 °F 27.5 °F 28.4 °F 87% 30.04 in 10.0 mi NNW 4.6 mph - N/A   Overcast
3:47 AM 32.0 °F 26.4 °F 28.4 °F 87% 30.04 in 10.0 mi NW 5.8 mph - N/A   Overcast
4:07 AM 32.0 °F 26.4 °F 28.4 °F 87% 30.05 in 10.0 mi NW 5.8 mph - N/A   Overcast
4:27 AM 32.0 °F 27.5 °F 28.4 °F 87% 30.06 in 10.0 mi WNW 4.6 mph - N/A   Overcast
4:47 AM 32.0 °F 25.6 °F 28.4 °F 87% 30.06 in 10.0 mi WNW 6.9 mph - N/A   Overcast
5:50 AM 28.4 °F 22.2 °F 23.0 °F 80% 30.07 in 20.0 mi West 5.8 mph - N/A   Mostly Cloudy
6:45 AM 30.2 °F - 26.6 °F 86% 30.08 in 20.0 mi Calm Calm - N/A   Scattered Clouds
7:48 AM 32.0 °F - 26.6 °F 80% 30.10 in 15.0 mi Calm Calm - N/A   Scattered Clouds
8:51 AM 35.6 °F - 26.6 °F 70% 30.12 in 15.0 mi Calm Calm - N/A   Partly Cloudy
9:54 AM 39.2 °F 35.9 °F 21.2 °F 49% 30.12 in 15.0 mi NNW 4.6 mph - N/A   Partly Cloudy
10:46 AM 41.0 °F 35.2 °F 19.4 °F 42% 30.12 in 20.0 mi NE 9.2 mph - N/A   Partly Cloudy
11:46 AM 41.0 °F 36.4 °F 19.4 °F 42% 30.11 in 25.0 mi North 6.9 mph - N/A   Partly Cloudy
12:55 PM 42.8 °F 39.3 °F 19.4 °F 39% 30.10 in 30.0 mi NE 5.8 mph - N/A   Partly Cloudy
1:45 PM 42.8 °F - 17.6 °F 36% 30.09 in 30.0 mi Calm Calm - N/A   Partly Cloudy
2:46 PM 44.6 °F 41.4 °F 17.6 °F 34% 30.10 in 25.0 mi Variable 5.8 mph - N/A   Partly Cloudy
3:50 PM 42.8 °F 41.1 °F 17.6 °F 36% 30.12 in 25.0 mi East 3.5 mph - N/A   Partly Cloudy
4:45 PM 39.2 °F 37.0 °F 17.6 °F 42% 30.12 in 25.0 mi Variable 3.5 mph - N/A   Partly Cloudy
5:52 PM 23.0 °F 13.9 °F 12.2 °F 63% 30.31 in 10.0 mi South 8.1 mph - N/A   Partly Cloudy
5:55 PM 35.6 °F - 19.4 °F 52% 30.19 in 20.0 mi Calm Calm - N/A   Partly Cloudy
6:52 PM 33.8 °F - 19.4 °F 56% 30.22 in 20.0 mi Calm Calm - N/A   Partly Cloudy
7:49 PM 35.6 °F - 19.4 °F 52% 30.24 in 20.0 mi Calm Calm - N/A   Partly Cloudy
8:20 PM 33.8 °F 24.3 °F 19.4 °F 56% 30.26 in 20.0 mi ESE 13.8 mph - N/A   Partly Cloudy
8:51 PM 33.8 °F 27.0 °F 17.6 °F 52% 30.28 in 20.0 mi ESE 8.1 mph - N/A   Partly Cloudy
9:53 PM 30.2 °F - 17.6 °F 60% 30.32 in 20.0 mi Calm Calm - N/A   Partly Cloudy
10:07 PM 32.0 °F - 17.6 °F 55% 30.32 in 10.0 mi Calm Calm - N/A   Clear
10:27 PM 32.0 °F 27.5 °F 17.6 °F 55% 30.32 in 10.0 mi SSE 4.6 mph - N/A   Clear
10:47 PM 30.2 °F 25.4 °F 17.6 °F 60% 30.32 in 10.0 mi SSE 4.6 mph - N/A   Clear
11:07 PM 30.2 °F 23.4 °F 17.6 °F 60% 30.32 in 10.0 mi South 6.9 mph - N/A   Clear
11:27 PM 30.2 °F 24.3 °F 17.6 °F 60% 30.33 in 10.0 mi South 5.8 mph - N/A   Clear
11:46 PM 30.2 °F 22.6 °F 17.6 °F 60% 30.33 in 10.0 mi South 8.1 mph - N/A   Clear